Tracking 27382 objects as of 4-Jun-2023
HD Live streaming from Space Station
objects crossing your sky now

STARLINK-2674

Track STARLINK-2674 now!
10-day predictions
STARLINK-2674 is classified as:


NORAD ID: 48354
Int'l Code: 2021-038B
Perigee: 553.8 km
Apogee: 555.0 km
Inclination: 53.1 °
Period: 95.6 minutes
Semi major axis: 6925 km
RCS: Unknown
Launch date: May 4, 2021
Source: United States (US)
Launch site: AIR FORCE EASTERN TEST RANGE (AFETR)
Your satellite tracking list
Your tracking list is empty




NASA's NSSDC Master Catalog

Two Line Element Set (TLE):
1 48354U 21038B   23155.46207426  .00001645  00000-0  12932-3 0  9991
2 48354  53.0526 212.2184 0000859 108.8238 251.2844 15.06387235114911
Source of the keplerian elements: AFSPC